Regional Weather Roundup
Issued by NWS

Home | Current Version | Previous Version | Text Only | Print | Product List | Glossary On
Versions: 1 2 3 4 5 6 7 8 9 10 11 12 13 14 15 16 17 18 19 20 21 22 23 24 25 26 27 28
000
ASUS44 KLIX 220513
RWRLA
LOUISIANA WEATHER ROUNDUP
NATIONAL WEATHER SERVICE NEW ORLEANS LA
1100 PM CST SAT JAN 21 2017

NOTE: "FAIR" INDICATES FEW OR NO CLOUDS BELOW 12,000 FEET WITH NO
      SIGNIFICANT WEATHER AND/OR OBSTRUCTIONS TO VISIBILITY.
      SKY/WX - SKY CONDITION AND SIGNIFICANT WEATHER.
      TMP - AIR TEMPERATURE.    DP   - DEWPOINT TEMPERATURE.
      RH  - RELATIVE HUMIDITY.  PRES - PRESSURE.
      HX  - HEAT INDEX.         WCI  - WIND CHILL INDEX.

*  THESE STATIONS ARE NOT NWS OR FAA STATIONS AND ARE NOT UNDER
   NWS QUALITY CONTROL.

LAZ040-048-061>063-065-066-069-220600-
SOUTHEAST LOUISIANA

CITY           SKY/WX    TMP DP  RH WIND       PRES   REMARKS
N.O. AUDUBON   NOT AVBL
N.O. INTL ARPT PTCLDY    71  68  90 SW13      29.53R
N.O. LAKEFRONT PTCLDY    71  68  90 SW16      29.53S
N.O. DOWNTOWN*   N/A     72  69  90 S9        29.53F
RESERVE*       CLOUDY    73  70  89 SW12      29.52S
SLIDELL        MOCLDY    70  68  93 SW5       29.52S
BATON ROUGE    CLEAR     69  66  90 SW8       29.49S FOG
BOOTHVILLE     CLOUDY    70  69  97 SW15      29.58S FOG
BELLE CHASSE   PTCLDY    73  69  87 SW13      29.53S
BOGALUSA*      MOCLDY    69  65  88 S5        29.52F
GALLIANO*      CLOUDY    73  69  88 SW13      29.56F FOG
NEW ROADS*     FAIR      68  65  92 SW7       29.49F FOG
GONZALES*      MOCLDY    71  67  88 SW8       29.51R
HAMMOND*       CLEAR     68  64  88 SW6       29.50S FOG
HOUMA*         CLOUDY    72  70  95 SW9       29.55R FOG
PORT FOURCHON* MOCLDY    72  70  94 SW9       29.55F FOG

$$

LAZ041-044-053-054-220600-
SOUTHWEST LOUISIANA

CITY           SKY/WX    TMP DP  RH WIND       PRES   REMARKS
LAKE CHARLES   FOG       61  61 100 S5        29.48F VSB<1/4
LAFAYETTE      PTCLDY    70  67  90 W6        29.49S FOG
PATTERSON      CLOUDY    70  69  97 S9        29.53S FOG
SALT POINT     NOT AVBL
NEW IBERIA     MOCLDY    68  65  90 S7        29.51S FOG
CHENAULT AIRPK PTCLDY    64  63  97 E7        29.48S FOG

$$

LAZ027-028-220600-
CENTRAL LOUISIANA

CITY           SKY/WX    TMP DP  RH WIND       PRES   REMARKS
FORT POLK      CLOUDY    65  65  98 SW7       29.47F FOG
ALEXANDRIA INT PTCLDY    64  64 100 SW6       29.46R FOG
ALEXANDRIA     CLOUDY    67  66  97 SW7       29.47S FOG

$$

LAZ001-002-220600-
NORTHWEST LOUISIANA

CITY           SKY/WX    TMP DP  RH WIND       PRES   REMARKS
SHREVEPORT     CLEAR     62  60  93 S8        29.45S
BARKSDALE AFB  CLEAR     61  60  97 SW6       29.45S
DTN SHREVEPORT CLEAR     60  57  89 SW6       29.45R

$$

LAZ014-016-220600-
NORTHEAST LOUISIANA

CITY           SKY/WX    TMP DP  RH WIND       PRES   REMARKS
MONROE         CLEAR     63  61  93 SW8       29.47R
TALLULAH       CLEAR     64  57  78 VRB6      29.45R

$$





USA.gov is the U.S. government's official web portal to all federal, state and local government web resources and services.